Notices

What's New in latest Release from April 7th, 2021:

- Updated Glossary, including Speed of Maximum Gust, and Total Hourly Precipitation

- Updated national and regional climate services offices contacts and prices information

- Addition of station inventory lists for 1981-2010, 1971-2000, and 1961-1990 Normals.

If you haven't already, please take our survey and provide feedback about our website: https://eccc.sondage-survey.ca/f/LanguageSelection.aspx?s=442ca660-fcf1-47c0-95a9-59707d6fd709

Hourly Data Report for March 31, 2004

SHERBROOKE A
QUEBEC

45°26'00.000" N
71°41'00.000" W
241.40 m
7028124
71610
YSC

Download Data

Hourly Data (March 2004)
Hourly Data Report for March 31, 2004
TIME
LST
Temp Definition
°C
Dew Point Definition
°C
Rel Hum Definition
%
Precip. Amount Definition
mm

Wind Dir Definition
10's deg

Wind Spd Definition
km/h
Visibility Definition
km
Stn Press Definition
kPa
Hmdx Definition


Wind Chill Definition


Weather Definition


00:00 0.8 -6.2 59   14 4 15.0 98.85      
01:00 -0.9 -5.6 70     0 15.0 98.87      
02:00 -0.2 -5.4 68   16 9 15.0 98.87   -3  
03:00 -2.1 -5.7 76   10 4 15.0 98.84   -4  
04:00 -2.1 -5.3 79   12 4 15.0 98.78   -4  
05:00 -1.7 -4.7 80   17 6 15.0 98.78   -4  
06:00 -1.6 -4.6 80   10 4 15.0 98.82   -3  
07:00 0.5 -3.8 73     0 15.0 98.87      
08:00 2.7 -3.0 66     0 24.1 98.86     Mostly Cloudy
09:00 4.5 -2.2 62   36 4 24.1 98.88     Cloudy
10:00 5.3 -2.0 59   35 4 24.1 98.86     Cloudy
11:00 6.7 -1.0 58   36 6 24.1 98.78     Rain
12:00 7.5 0.2 60   35 6 24.1 98.71     Rain
13:00 9.0 2.4 63     0 19.3 98.70     Rain
14:00 8.0 2.7 69   34 6 19.3 98.61     Rain
15:00 8.9 3.9 71   5 6 19.3 98.56     Rain
16:00 8.2 4.9 80     0 12.9 98.60     Rain
17:00 7.2 6.2 93     0 9.7 98.61     Rain
18:00 6.5 5.6 94     0 8.0 98.64     Drizzle
19:00 5.6 4.2 91     0 11.3 98.66     Rain
20:00 5.0 3.9 93   7 6 8.0 98.65      
21:00 4.8 3.7 93   6 7 9.7 98.62      
22:00 4.4 3.5 94   8 6 8.0 98.61      
23:00 4.4 3.6 95   6 7 6.4 98.57      

Notes on Data Quality.

Legend

  • E = Estimated
  • M = Missing
  • NA = Not Available*
  • [empty] = Indicates an unobserved value
Date modified: